FW1460 Weather Reports


Display with metric or nautical units.
time (UTC)temp
F
wind
direction
speed
MPH
gust
MPH
rain 1hr
in
rain 24hr
in
rain mn
in
humidity
%
barometer
mb
20260904183031 83 355 1.0 4.0 0.00 0.00 0.00 62 1007.1
20260904181534 82 336 1.0 5.0 0.00 0.00 0.00 60 1007.1
20260904180029 82 349 2.0 6.0 0.00 0.00 0.00 63 1007.2
20260904174530 82 355 2.0 6.0 0.00 0.00 0.00 62 1007.4
20260904173044 81 5 3.0 8.0 0.00 0.00 0.00 62 1007.5
20260904171525 82 355 2.0 7.0 0.00 0.00 0.00 62 1007.6
20260904170023 82 5 1.0 6.0 0.00 0.00 0.00 65 1007.7
20260904164521 81 19 1.0 6.0 0.00 0.00 0.00 66 1007.6
20260904163021 81 360 1.0 6.0 0.00 0.00 0.00 65 1007.8
20260904161519 80 9 1.0 8.0 0.00 0.00 0.00 66 1007.9
20260904160017 81 10 2.0 9.0 0.00 0.00 0.00 65 1008.0
20260904154516 81 13 0.0 9.0 0.00 0.00 0.00 68 1008.2
20260904153014 80 341 1.0 8.0 0.00 0.00 0.00 68 1008.1
20260904151513 80 355 2.0 6.0 0.00 0.00 0.00 65 1008.1
20260904150014 80 5 2.0 8.0 0.00 0.00 0.00 67 1008.3
20260904144508 79 17 2.0 8.0 0.00 0.01 0.00 67 1008.3
20260904143006 79 5 2.0 8.0 0.00 0.01 0.00 68 1008.5
20260904141505 78 14 2.0 7.0 0.00 0.01 0.00 73 1008.5
20260904134606 77 296 0.0 3.0 0.00 0.01 0.00 77 1008.7
20260904133108 77 131 0.0 3.0 0.00 0.01 0.00 77 1008.6
20260904131602 77 181 0.0 2.0 0.00 0.01 0.00 80 1008.7
20260904130057 75 180 0.0 2.0 0.00 0.01 0.00 79 1008.7
20260904124602 74 180 0.0 4.0 0.00 0.01 0.00 82 1008.8
20260904123050 74 166 0.0 3.0 0.00 0.01 0.00 83 1009.0
20260904121546 73 165 0.0 2.0 0.00 0.01 0.00 90 1008.9
20260904120043 72 165 0.0 0.0 0.00 0.01 0.00 93 1009.0
20260904114540 70 165 0.0 0.0 0.00 0.02 0.00 94 1009.1
20260904113038 69 165 0.0 1.0 0.00 0.02 0.00 94 1009.1
20260904111537 68 165 0.0 0.0 0.00 0.02 0.00 94 1009.1
20260904110037 68 165 0.0 0.0 0.00 0.02 0.00 94 1009.1
20260904104540 68 165 0.0 0.0 0.00 0.03 0.00 93 1009.0
20260904103035 67 165 0.0 0.0 0.00 0.03 0.00 93 1008.7
20260904101535 67 165 0.0 0.0 0.00 0.03 0.00 93 1008.7
20260904100037 67 165 0.0 0.0 0.00 0.03 0.00 93 1008.6
20260904094533 67 165 0.0 0.0 0.00 0.18 0.00 93 1008.5
20260904093033 67 165 0.0 0.0 0.00 0.18 0.00 93 1008.5
20260904091548 68 165 0.0 0.0 0.00 0.18 0.00 93 1008.4
20260904090031 68 165 0.0 0.0 0.00 0.18 0.00 93 1008.5
20260904084531 67 165 0.0 0.0 0.00 0.21 0.00 93 1008.6
20260904083031 67 165 0.0 0.0 0.00 0.21 0.00 93 1008.7
20260904081529 67 165 0.0 0.0 0.00 0.21 0.00 93 1008.5
20260904080028 68 165 0.0 0.0 0.00 0.21 0.00 93 1008.5
20260904074547 68 165 0.0 0.0 0.00 0.21 0.00 93 1008.5
20260904073025 68 165 0.0 0.0 0.00 0.21 0.00 93 1008.8
20260904071523 68 165 0.0 0.0 0.00 0.21 0.00 93 1009.0
20260904070022 68 165 0.0 0.0 0.00 0.21 0.00 93 1009.0
20260904064521 68 165 0.0 0.0 0.00 0.21 0.00 93 1009.2
20260904063035 68 165 0.0 0.0 0.00 0.21 0.00 92 1009.2
20260904061519 68 165 0.0 0.0 0.00 0.21 0.00 92 1009.3
20260904054543 68 165 0.0 0.0 0.00 0.21 0.00 92 1009.5
20260904053052 69 165 0.0 0.0 0.00 0.21 0.00 92 1009.7
20260904051539 70 165 0.0 0.0 0.00 0.21 0.00 92 1009.8
20260904050037 70 165 0.0 0.0 0.00 0.21 0.00 92 1009.9
20260904044535 70 165 0.0 0.0 0.00 0.21 0.00 92 1010.1
20260904043033 70 165 0.0 0.0 0.00 0.21 0.00 92 1010.3
20260904041536 70 165 0.0 2.0 0.00 0.21 0.00 92 1010.4
20260904040030 70 165 0.0 0.0 0.00 0.21 0.00 92 1010.3
20260904034531 70 165 0.0 0.0 0.00 0.21 0.21 92 1010.6
20260904033029 71 165 0.0 2.0 0.00 0.21 0.21 91 1010.6
20260904031528 71 165 0.0 1.0 0.00 0.21 0.21 91 1010.6
20260904030035 71 165 0.0 2.0 0.00 0.21 0.21 92 1010.5
20260904024528 71 165 0.0 2.0 0.00 0.21 0.21 92 1010.6
20260904023027 71 165 0.0 0.0 0.00 0.21 0.21 91 1010.8
20260904021534 71 165 0.0 0.0 0.00 0.21 0.21 91 1010.8
20260904020027 71 165 0.0 0.0 0.00 0.21 0.21 91 1011.0
20260904014526 71 165 0.0 0.0 0.00 0.21 0.21 90 1011.1
20260904013025 72 165 0.0 2.0 0.00 0.21 0.21 90 1011.4
20260904011525 72 165 0.0 1.0 0.00 0.21 0.21 91 1011.5
20260904010025 72 165 0.0 2.0 0.00 0.21 0.21 91 1011.3
20260904004525 71 165 0.0 0.0 0.00 0.21 0.21 91 1011.3
20260904003024 71 165 0.0 0.0 0.00 0.21 0.21 90 1011.0
20260904001522 71 165 0.0 0.0 0.00 0.21 0.21 90 1010.8
20260904000022 72 165 0.0 0.0 0.00 0.21 0.21 90 1010.5
20260903234521 72 165 0.0 0.0 0.00 0.21 0.21 89 1010.6
20260903233021 73 165 0.0 0.0 0.00 0.21 0.21 88 1010.4
20260903231521 73 165 0.0 0.0 0.00 0.21 0.21 87 1010.3
20260903230022 74 165 0.0 2.0 0.00 0.21 0.21 86 1010.3
20260903224519 75 165 0.0 3.0 0.00 0.21 0.21 85 1010.4
20260903223018 75 165 0.0 3.0 0.00 0.21 0.21 84 1010.6
20260903221539 77 171 0.0 4.0 0.00 0.21 0.21 82 1010.7
20260903220018 77 171 0.0 2.0 0.00 0.21 0.21 79 1010.7
20260903214516 78 171 0.0 3.0 0.00 0.21 0.21 79 1010.4
20260903213021 79 172 0.0 4.0 0.00 0.21 0.21 79 1010.3
20260903211517 78 273 0.0 3.0 0.00 0.21 0.21 78 1010.5
20260903210016 79 155 0.0 2.0 0.00 0.21 0.21 78 1010.6
20260903204515 78 155 0.0 2.0 0.00 0.21 0.21 78 1010.4
20260903203020 79 155 0.0 7.0 0.00 0.21 0.21 77 1010.4
20260903201512 80 151 0.0 5.0 0.00 0.21 0.21 75 1010.6
20260903200020 80 150 0.0 5.0 0.00 0.21 0.21 75 1010.7
20260903194522 80 153 0.0 6.0 0.00 0.21 0.21 75 1010.8
20260903193007 79 168 1.0 7.0 0.00 0.21 0.21 77 1011.1
20260903191505 79 150 1.0 5.0 0.00 0.21 0.21 78 1011.2
20260903190004 78 221 0.0 2.0 0.00 0.21 0.21 80 1011.4
20260903184503 78 236 0.0 2.0 0.00 0.21 0.21 79 1011.4